Estación municipal de St. Hilari Sacalm (La Selva, Guilleries)

Consulta los datos en tiempo real de la estación municipal de St. Hilari Sacalm





Hora UTC 02:45
Temperatura 17.9 ºC
Humedad 88.1 %
Presión 1022.5 hPa
Pluja 0.0 mm
Velocidad viento 0.0 km/h
Dirección viento NNE
Radiación solar 0.1 W/m²

Webcam

Datos diarios 2026-09-02



Hora UTC (invierno +1h; verano +2h)
Temperatura (ºC) Humedad (%) Presión (hPa) Velocidad viento (km/h) Precipitación (mm) Radiación solar (W/m²)
Hora UTC Aire Humedad Presión Vel. Dir. Vel. Max Dir. Intent. máx 5 min. Rad. Sol.
00:05 18.8 82.6 1022.8 0.0 SW 0.0 SW 0.0 0.1
00:10 18.9 81.9 1022.8 0.0 NNE 0.0 SW 0.0 0.1
00:15 18.7 82.3 1022.8 0.0 NNE 0.0 SW 0.0 0.1
00:20 18.6 82.8 1022.8 0.0 NNE 0.0 SSW 0.0 0.1
00:25 18.5 83.0 1022.8 0.0 NNE 0.0 SSW 0.0 0.1
00:30 18.4 83.4 1022.8 0.0 NNE 0.0 SW 0.0 0.1
00:35 18.3 84.1 1022.8 0.0 NNE 0.0 SSW 0.0 0.1
00:40 18.4 83.9 1022.8 0.0 NNE 0.0 SSW 0.0 0.1
00:45 18.4 83.9 1022.8 0.0 NNE 0.0 SW 0.0 0.1
00:50 18.4 83.8 1022.8 0.0 NNE 0.0 WSW 0.0 0.1
00:55 18.3 84.4 1022.8 0.0 NNE 0.0 SSW 0.0 0.1
01:00 18.3 84.4 1022.7 0.0 NNE 0.0 SSW 0.0 0.1
01:05 18.3 84.5 1022.7 0.0 NNE 0.0 SSW 0.0 0.1
01:10 18.3 84.6 1022.7 0.0 NNE 0.0 SSW 0.0 0.1
01:15 18.3 84.8 1022.7 0.0 NNE 0.0 SSW 0.0 0.1
01:20 18.3 84.7 1022.7 0.0 NNE 0.0 SSW 0.0 0.2
01:25 18.2 85.0 1022.6 0.0 NNE 0.0 SSW 0.0 0.2
01:30 18.3 84.8 1022.6 0.0 NNE 0.0 SSW 0.0 0.1
01:35 18.2 85.0 1022.7 0.0 NNE 0.0 SSW 0.0 0.1
01:40 18.2 85.1 1022.6 0.0 NNE 0.0 SW 0.0 0.1
01:45 18.2 85.3 1022.5 0.0 NNE 0.0 SSW 0.0 0.1
01:50 18.3 85.0 1022.5 0.0 NNE 0.0 SSW 0.0 0.1
01:55 18.3 84.8 1022.5 0.0 NNE 0.0 SSW 0.0 0.1
02:00 18.1 84.9 1022.5 0.0 NNE 0.0 WSW 0.0 0.1
02:05 17.9 85.6 1022.6 0.0 NNE 0.0 SW 0.0 0.1
02:10 17.8 86.3 1022.6 0.0 NNE 0.0 SW 0.0 0.1
02:15 17.7 87.3 1022.6 0.0 NNE 0.0 SW 0.0 0.1
02:20 17.6 87.9 1022.6 0.0 NNE 0.0 SSW 0.0 0.1
02:25 17.6 88.7 1022.5 0.0 NNE 0.0 SSW 0.0 0.1
02:30 17.6 89.0 1022.5 0.0 NNE 0.0 SW 0.0 0.2
02:35 17.7 89.1 1022.5 0.0 NNE 0.0 SSW 0.0 0.1
02:40 17.8 88.7 1022.5 0.0 NNE 0.0 SSW 0.0 0.1
02:45 17.9 88.1 1022.5 0.0 NNE 0.0 SW 0.0 0.1
Máxima 18.9 89.1 1022.8 0.0 NNE 0.0 SW 0.0 0.2
Mínima 17.6 81.9 1022.5
Total 0.0